Weather History for CWGB - May, 2013

Change the Weather History Date:

Wednesday, May 1, 2013

  Actual Average Record
Temperature  
Mean Temperature 48 °F -  
Max Temperature 53 °F - - ()
Min Temperature 43 °F - - ()
Degree Days  
Heating Degree Days 17    
Moisture  
Dew Point 39 °F    
Average Humidity 68    
Maximum Humidity 82    
Minimum Humidity 56    
Precipitation  
Precipitation 0.00 in - - ()
Sea Level Pressure  
Sea Level Pressure 30.53 in    
Wind  
Wind Speed 8 mph ()    
Max Wind Speed 15 mph    
Max Gust Speed -    
T = Trace of Precipitation, MM = Missing Value Source: Averaged Metar Reports

Daily Weather History Graph

Daily Weather History Graph

Search for Another Location

Airport or City:

Trip Planner

Search our weather history database for the weather conditions in past years. The results will help you decide how hot, cold, wet, or windy it might be!

Date:

Astronomy

May. 01, 2013 Rise Set
Actual Time 5:54 AM PDT 8:34 PM PDT
Civil Twilight 5:18 AM PDT 9:10 PM PDT
Nautical Twilight 4:32 AM PDT 9:56 PM PDT
Astronomical Twilight 3:38 AM PDT 10:51 PM PDT
Moon 1:48 AM PDT (5/1) 11:39 AM PDT (5/1)
Length of Visible Light 15h 52m
Length of Day
14h 39m
Waning Gibbous, 58% of the Moon is Illuminated
May 1
Waning Gibbous
May 2
Last Quarter
May 9
New
May 17
First Quarter
May 24
Full

Hourly Weather History & Observations

Time (PDT) Temp. Windchill Dew Point Humidity Pressure Visibility Wind Dir Wind Speed Gust Speed Precip Events Conditions
12:00 AM 47.1 °F - 37.2 °F 68% 30.40 in - WSW 11.5 mph - N/A   Unknown
1:00 AM 46.0 °F 39.6 °F 34.7 °F 65% 30.43 in - WSW 15.0 mph - N/A   Unknown
2:00 AM 46.4 °F 40.1 °F 36.0 °F 67% 30.43 in - WSW 15.0 mph - N/A   Unknown
4:00 AM 44.2 °F 38.4 °F 34.2 °F 68% 30.46 in - WSW 11.5 mph - N/A   Unknown
5:00 AM 44 °F - 34 °F 59% 30.48 in - WSW 12.7 mph - -  
5:00 AM 43.7 °F 37.3 °F 34.3 °F 70% 30.48 in - WSW 12.7 mph - N/A   Unknown
6:00 AM 43.5 °F 37.9 °F 33.3 °F 67% 30.50 in - WSW 10.4 mph - N/A   Unknown
7:00 AM 43.3 °F 38.1 °F 33.6 °F 69% 30.52 in - WSW 9.2 mph - N/A   Unknown
8:00 AM 45.5 °F 41.8 °F 33.4 °F 63% 30.54 in - WSW 6.9 mph - N/A   Unknown
9:00 AM 46.6 °F - 35.4 °F 65% 30.56 in - West 5.8 mph - N/A   Unknown
10:00 AM 51.8 °F - 41.7 °F 68% 30.57 in - NNW 2.3 mph - N/A   Unknown
11:00 AM 48 °F - 38 °F 59% 30.57 in - East 8.1 mph - -  
11:00 AM 48.4 °F - 38.1 °F 68% 30.57 in - East 8.1 mph - N/A   Unknown
12:00 PM 49.3 °F - 39.9 °F 70% 30.58 in - East 9.2 mph - N/A   Unknown
1:00 PM 49.6 °F - 40.6 °F 71% 30.58 in - East 10.4 mph - N/A   Unknown
2:00 PM 50.5 °F - 41.2 °F 70% 30.58 in - East 8.1 mph - N/A   Unknown
4:00 PM 51.3 °F - 40.5 °F 67% 30.57 in - East 4.6 mph - N/A   Unknown
5:00 PM 53 °F - 42 °F 56% 30.55 in - ESE 8.1 mph - -  
5:00 PM 52.7 °F - 41.7 °F 66% 30.55 in - ESE 8.1 mph - N/A   Unknown
6:00 PM 52.0 °F - 42.1 °F 69% 30.54 in - ESE 6.9 mph - N/A   Unknown
7:00 PM 52.0 °F - 41.7 °F 68% 30.54 in - East 4.6 mph - N/A   Unknown
8:00 PM 52.0 °F - 42.6 °F 70% 30.54 in - East 4.6 mph - N/A   Unknown
9:00 PM 51.6 °F - 43.5 °F 74% 30.55 in - ENE 2.3 mph - N/A   Unknown
10:00 PM 50.0 °F - 44.4 °F 81% 30.55 in - Calm Calm - N/A   Unknown
11:00 PM 50 °F - 45 °F 75% 30.55 in - SW 3.5 mph - -  
11:00 PM 49.8 °F - 44.6 °F 82% 30.55 in - SW 3.5 mph - N/A   Unknown